Weather History for Athens, OH

Change the Weather History Date:

Thursday, August 9, 2012

  Actual Average (KPKB) Record (KPKB)
Temperature  
Mean Temperature 76 °F 74 °F  
Max Temperature 87 °F 85 °F 98 °F (1930)
Min Temperature 66 °F 64 °F 47 °F (1989)
Degree Days  
Heating Degree Days 0 0  
Month to date heating degree days 0  
Since 1 June heating degree days 20  
Since 1 July heating degree days 1  
Cooling Degree Days 12 9  
Month to date cooling degree days 81  
Year to date cooling degree days 648  
Since 1 June cooling degree days 564  
Growing Degree Days 26 (Base 50)    
Moisture  
Dew Point 66 °F    
Average Humidity 75    
Maximum Humidity 94    
Minimum Humidity 49    
Precipitation  
Precipitation 0.04 in 0.13 in 0.41 in (2003)
Month to date precipitation 1.10  
Year to date precipitation 26.28  
Sea Level Pressure  
Sea Level Pressure 29.89 in    
Wind  
Wind Speed 3 mph (South)    
Max Wind Speed 24 mph    
Max Gust Speed 33 mph    
Visibility 10 miles    
Events Rain , Thunderstorm    
T = Trace of Precipitation, MM = Missing Value Source: NWS Daily Summary

Daily Weather History Graph

Daily Weather History Graph

Search for Another Location

Airport:

Trip Planner

Search our weather history database for the weather conditions in past years. The results will help you decide how hot, cold, wet, or windy it might be!

Date:

Astronomy

Aug. 09, 2012 Rise Set
Actual Time 6:36 AM EDT 8:31 PM EDT
Civil Twilight 6:07 AM EDT 9:00 PM EDT
Nautical Twilight 5:32 AM EDT 9:35 PM EDT
Astronomical Twilight 4:54 AM EDT 10:13 PM EDT
Moon No Moon Rise 2:13 PM EDT (8/9)
Length of Visible Light 14h 52m
Length of Day
13h 54m
Waning Gibbous, 51% of the Moon is Illuminated
Aug 9
Waning Gibbous
Aug 9
Last Quarter
Aug 17
New
Aug 24
First Quarter
Aug 31
Full

Hourly Weather History & Observations

Time (EDT) Temp. Heat Index Dew Point Humidity Pressure Visibility Wind Dir Wind Speed Gust Speed Precip Events Conditions
12:15 AM 73.2 °F - 68.9 °F 86% 29.95 in 10.0 mi Calm Calm - N/A   Scattered Clouds
12:35 AM 72.7 °F - 68.5 °F 87% 29.95 in 10.0 mi Calm Calm - N/A   Scattered Clouds
12:55 AM 72.9 °F - 68.7 °F 87% 29.94 in 10.0 mi Calm Calm - N/A   Clear
1:15 AM 71.6 °F - 68.5 °F 90% 29.95 in 10.0 mi Calm Calm - N/A   Scattered Clouds
1:35 AM 71.8 °F - 69.1 °F 91% 29.95 in 10.0 mi WNW 5.8 mph - N/A Thunderstorm Thunderstorm
1:55 AM 73.8 °F - 69.3 °F 86% 29.94 in 10.0 mi SE 4.6 mph - N/A Rain Light Rain
2:15 AM 73.4 °F - 68.2 °F 84% 29.94 in 10.0 mi Calm Calm - N/A   Clear
2:35 AM 72.9 °F - 68.4 °F 86% 29.94 in 10.0 mi Calm Calm - N/A   Clear
2:55 AM 72.9 °F - 68.2 °F 85% 29.93 in 10.0 mi Calm Calm - N/A   Clear
3:15 AM 70.9 °F - 68.0 °F 91% 29.92 in 10.0 mi Calm Calm - N/A   Clear
3:35 AM 70.0 °F - 67.6 °F 92% 29.92 in 10.0 mi WSW 3.5 mph - N/A   Clear
3:55 AM 69.8 °F - 67.6 °F 93% 29.91 in 10.0 mi West 4.6 mph - N/A   Clear
4:15 AM 69.3 °F - 67.3 °F 93% 29.91 in 10.0 mi WSW 4.6 mph - N/A   Clear
4:35 AM 69.4 °F - 67.3 °F 93% 29.91 in 10.0 mi Calm Calm - N/A   Clear
4:55 AM 70.2 °F - 67.1 °F 90% 29.91 in 10.0 mi Calm Calm - N/A   Clear
5:15 AM 68.7 °F - 66.2 °F 92% 29.91 in 10.0 mi West 3.5 mph - N/A   Clear
5:35 AM 68.4 °F - 66.4 °F 93% 29.91 in 10.0 mi Calm Calm - N/A   Clear
5:55 AM 68.9 °F - 66.4 °F 92% 29.92 in 10.0 mi Calm Calm - N/A   Clear
6:15 AM 68.5 °F - 66.4 °F 93% 29.92 in 10.0 mi Calm Calm - N/A   Clear
6:35 AM 68.5 °F - 66.4 °F 93% 29.94 in 10.0 mi Calm Calm - N/A   Clear
6:55 AM 68.2 °F - 66.2 °F 93% 29.94 in 10.0 mi South 3.5 mph - N/A   Clear
7:15 AM 68.5 °F - 66.2 °F 92% 29.95 in 10.0 mi Calm Calm - N/A   Clear
7:35 AM 70.2 °F - 67.1 °F 90% 29.94 in 10.0 mi SSE 3.5 mph - N/A   Clear
7:55 AM 70.7 °F - 67.1 °F 88% 29.94 in 10.0 mi Calm Calm - N/A   Clear
8:15 AM 71.6 °F - 67.5 °F 87% 29.94 in 10.0 mi Calm Calm - N/A   Clear
8:35 AM 74.3 °F - 68.2 °F 81% 29.94 in 10.0 mi Calm Calm - N/A   Clear
8:55 AM 75.4 °F - 68.2 °F 78% 29.94 in 10.0 mi Calm Calm - N/A   Scattered Clouds
9:15 AM 74.8 °F - 68.2 °F 80% 29.94 in 10.0 mi Calm Calm - N/A   Scattered Clouds
9:35 AM 75.0 °F - 68.9 °F 81% 29.96 in 10.0 mi NNW 6.9 mph - N/A   Scattered Clouds
9:55 AM 76.5 °F - 67.8 °F 75% 29.97 in 10.0 mi WNW 6.9 mph - N/A   Scattered Clouds
10:15 AM 76.6 °F - 63.7 °F 64% 29.97 in 10.0 mi NW 5.8 mph - N/A   Clear
10:35 AM 76.1 °F - 63.7 °F 65% 29.97 in 10.0 mi NW 6.9 mph - N/A   Clear
10:55 AM 77.7 °F - 64.8 °F 64% 29.97 in 10.0 mi North 5.8 mph - N/A   Clear
11:15 AM 79.7 °F - 63.7 °F 58% 29.96 in 10.0 mi North 9.2 mph - N/A   Clear
11:55 AM 80.1 °F 81.2 °F 62.1 °F 54% 29.95 in 10.0 mi NNE 4.6 mph - N/A   Clear
12:15 PM 80.6 °F 81.8 °F 62.6 °F 54% 29.94 in 10.0 mi Calm Calm - N/A   Clear
12:35 PM 82.2 °F 83.7 °F 63.9 °F 54% 29.94 in 10.0 mi ENE 5.8 mph - N/A   Clear
12:55 PM 82.6 °F 83.9 °F 63.9 °F 53% 29.92 in 10.0 mi ESE 6.9 mph - N/A   Clear
1:15 PM - - - N/A% - - North - - N/A   Unknown
1:35 PM 84.4 °F 85.9 °F 64.2 °F 51% 29.90 in 10.0 mi ESE 8.1 mph - 0.04 in   Clear
1:55 PM 84.2 °F 85.8 °F 64.8 °F 52% 29.88 in 10.0 mi ESE 8.1 mph - 0.04 in   Clear
2:15 PM 84.6 °F 86.1 °F 64.8 °F 51% 29.87 in 10.0 mi SE 3.5 mph - N/A   Clear
2:35 PM 85.8 °F 87.6 °F 64.9 °F 50% 29.86 in 10.0 mi South 4.6 mph - N/A   Clear
2:55 PM 86.0 °F 87.9 °F 65.1 °F 50% 29.86 in 10.0 mi South 4.6 mph - N/A   Clear
3:15 PM 86.5 °F 88.7 °F 65.8 °F 50% 29.86 in 10.0 mi South 5.8 mph - N/A   Clear
3:35 PM 86.9 °F 88.9 °F 65.5 °F 49% 29.84 in 10.0 mi South 8.1 mph - N/A   Clear
3:55 PM 86.9 °F 88.9 °F 65.7 °F 49% 29.84 in 10.0 mi South 5.8 mph - N/A   Clear
4:15 PM 86.9 °F 89.9 °F 67.1 °F 52% 29.82 in 10.0 mi South 5.8 mph - N/A   Clear
4:35 PM 87.1 °F 89.5 °F 66.6 °F 50% 29.81 in 10.0 mi South 6.9 mph - N/A   Clear
4:55 PM 87.4 °F 89.8 °F 66.4 °F 49% 29.79 in 10.0 mi SSE 6.9 mph - N/A   Clear
5:15 PM 86.4 °F 89.0 °F 67.1 °F 52% 29.79 in 10.0 mi South 6.9 mph - N/A   Clear
5:35 PM 87.3 °F 90.9 °F 68.2 °F 53% 29.78 in 10.0 mi South 3.5 mph - N/A   Clear
5:55 PM 86.0 °F 89.4 °F 68.2 °F 55% 29.79 in 10.0 mi South 4.6 mph - N/A   Clear
6:15 PM 85.3 °F 88.5 °F 68.2 °F 56% 29.79 in 10.0 mi South 5.8 mph - N/A   Clear
6:35 PM 84.4 °F 87.6 °F 68.4 °F 58% 29.79 in 10.0 mi South 4.6 mph - N/A   Clear
6:55 PM 83.3 °F 86.6 °F 68.5 °F 61% 29.79 in 10.0 mi South 4.6 mph - N/A   Clear
7:15 PM 82.4 °F 85.4 °F 68.0 °F 62% 29.79 in 10.0 mi SSW 5.8 mph - N/A   Clear
7:35 PM 81.9 °F 84.6 °F 67.6 °F 62% 29.79 in 10.0 mi SW 3.5 mph - N/A   Scattered Clouds
7:55 PM 81.7 °F 83.0 °F 63.5 °F 54% 29.82 in 10.0 mi WSW 12.7 mph 17.3 mph N/A Thunderstorm Scattered Clouds
8:15 PM 75.4 °F - 62.4 °F 64% 29.87 in 10.0 mi WNW 24.2 mph 33.4 mph N/A Thunderstorm Thunderstorm
8:35 PM 68.0 °F - 64.2 °F 88% 29.86 in 10.0 mi NW 6.9 mph - N/A Rain , Thunderstorm Rain
8:55 PM 68.2 °F - 63.9 °F 86% 29.84 in 10.0 mi ENE 3.5 mph - N/A   Scattered Clouds
9:15 PM 67.5 °F - 64.8 °F 91% 29.82 in 10.0 mi ENE 5.8 mph - N/A   Clear
9:35 PM 67.5 °F - 64.9 °F 92% 29.84 in 10.0 mi Calm Calm - N/A   Clear
9:55 PM 67.3 °F - 64.8 °F 92% 29.84 in 10.0 mi SE 3.5 mph - N/A   Clear
10:15 PM 67.3 °F - 64.9 °F 92% 29.85 in 10.0 mi SSE 5.8 mph - N/A   Clear
10:35 PM 67.3 °F - 64.6 °F 91% 29.85 in 10.0 mi Calm Calm - N/A   Clear
10:55 PM 67.1 °F - 64.6 °F 92% 29.85 in 10.0 mi Calm Calm - N/A   Clear
11:15 PM 67.1 °F - 64.6 °F 92% 29.84 in 10.0 mi Calm Calm - N/A   Scattered Clouds
11:35 PM 66.4 °F - 64.4 °F 93% 29.82 in 10.0 mi ENE 4.6 mph - N/A   Scattered Clouds
11:55 PM 66.2 °F - 64.4 °F 94% 29.81 in 10.0 mi Calm Calm - N/A   Clear